Location: Warszawa
(52.2500°N, 21.0000°E)
Time: 19:27:00
(UTC+02:00)

Vanguard 2 - Pass Details

Date: 05 February 2023
Orbit: 553 x 2927 km, 32.9° (Epoch: 27 March)

Event Time Altitude Azimuth Distance (km) Brightness Sun altitude
Rises 20:22:33 0° 214° (SW) 5,110 11.9 -35.4°
Reaches altitude 10° 20:26:17 10° 202° (SSW) 4,460 11.4 -35.9°
Enters shadow 20:31:18 22° 180° (S) 3,952 10.9 -36.6°
